SCP
0 0 0 0 0 0 0 0 0 0 0 0 0 0 0 0 0 0 0 0 0 0 0 0 0 0 0 0 0 0 0 0 0 0 0 0 0 0 0 0 0 0 0
0 0 0 0 0 0 0 0 0 0 0 0 0 0 0 0 0 0 0 0 0 0 0 0 0 0 0 0 0 0 0 0 0 0 0 0 0 0 0 0 0 0 0
0 0 0 0 0 0 0 0 0 0 0 0 0 0 0 0 0 0 0 0 0 0 0 0 0 0 0 0 0 0 0 0 0 0 0 0 0 0 0 0 0 0 0
0 0 0 0 0 0 0 0 0 0 0 0 0 0 0 0 0 0 0 0 0 0 0 0 0 0 0 0 0 0 0 0 0 0 0 0 0 0 0 0 0 0 0
0 0 0 0 0 0 0 0 0 0 0 0 0 0 0 0 0 0 0 0 0 0 0 0 0 0 0 0 0 0 0 0 0 0 0 0 0 0 0 0 0 0 0
0 0 0 0 0 0 0 0 0 0 0 0 0 0 0 0 0 0 0 0 0 0 0 0 0 0 0 0 0 0 0 0 0 0 0 0 0 0 0 0 0 0 0
0 0 0 0 0 0 0 0 0 0 0 0 0 0 0 0 0 0 0 0 0 0 0 0 0 0 0 0 0 0 0 0 0 0 0 0 0 0 0 0 0 0 0
0 0 0 0 0 0 0 0 0 0 0 0 0 0 0 0 0 0 0 0 0 0 0 0 0 0 0 0 0 0 0 0 0 0 0 0 0 0 0 0 0 0 0
0 0 0 0 0 0 0 0 0 0 0 0 0 0 0 0 0 0 0 0 0 0 0 0 0 0 0 0 0 0 0 0 0 0 0 0 0 0 0 0 0 0 0
0 0 0 0 0 0 0 0 0 0 0 0 0 0 0 0 0 0 0 0 0 0 0 0 0 0 0 0 0 0 0 0 0 0 0 0 0 0 0 0 0 0 0
0 0 0 0 0 0 0 0 0 0 0 0 0 0 0 0 0 0 0 0 0 0 0 0 0 0 0 0 0 0 0 0 0 0 0 0 0 0 0 0 0 0 0
0 0 0 0 0 0 0 0 0 0 0 0 0 0 0 0 0 0 0 0 0 0 0 0 0 0 0 0 0 0 0 0 0 0 0 0 0 0 0 0 0 0 0
0 0 0 0 0 0 0 0 0 0 0 0 0 0 0 0 0 0 0 0 0 0 0 0 0 0 0 0 0 0 0 0 0 0 0 0 0 0 0 0 0 0 0
0 0 0 0 0 0 0 0 0 0 0 0 0 0 0 0 0 0 0 0 0 0 0 0 0 0 0 0 0 0 0 0 0 0 0 0 0 0 0 0 0 0 0
0 0 0 0 0 0 0 0 0 0 0 0 0 0 0 0 0 0 0 0 0 0 0 0 0 0 0 0 0 0 0 0 0 0 0 0 0 0 0 0 0 0 0
0 0 0 0 0 0 0 0 0 0 0 0 0 0 0 0 0 0 0 0 0 0 0 0 0 0 0 0 0 0 0 0 0 0 0 0 0 0 0 0 0 0 0
0 0 0 0 0 0 0 0 0 0 0 0 0 0 0 0 0 0 0 0 0 0 0 0 0 0 0 0 0 0 0 0 0 0 0 0 0 0 0 0 0 0 0
0 0 0 0 0 0 0 0 0 0 0 0 0 0 0 0 0 0 0 0 0 0 0 0 0 0 0 0 0 0 0 0 0 0 0 0 0 0 0 0 0 0 0
0 0 0 0 0 0 0 0 0 0 0 0 0 0 0 0 0 0 0 0 0 0 0 0 0 0 0 0 0 0 0 0 0 0 0 0 0 0 0 0 0 0 0
-0 -0 -0 -0 0 0 0 0 0 0 0 0 0 0 0 0 0 0 0 0 0 0 0 0 0 0 0 0 0 0 0 0 0 0 0 0 0 0 0 0 0 0 0
0 0 -0 -0 -0 -0 -0 -0 -0 0 0 0 0 0 0 0 0 0 0 0 0 0 0 0 0 0 0 0 0 0 0 0 0 0 0 0 0 0 0 0 0 0 0
0 -0 -0 -0 -0 -0 -0 0 0 0 0 0 0 0 0 0 0 0 0 0 0 0 0 0 0 0 0 0 0 0 0 0 0 0 0 0 0 0 0 0 0 0 0
0 0 0 0 0 0 0 0 0 0 0 0 0 0 0 0 0 0 0 0 0 0 0 0 0 0 0 0 0 0 0 0 0 0 0 0 0 0 0 0 0 0 0
0 0 0 0 0 0 0 0 0 0 0 0 0 0 0 0 0 0 0 0 0 0 0 0 0 0 0 0 0 0 0 0 0 0 0 0 0 0 0 0 0 0 0
0 0 0 0 0 0 0 0 0 0 0 0 0 0 0 0 0 0 0 0 0 0 0 0 0 0 0 0 0 0 0 0 0 0 0 0 0 0 0 0 0 0 0
0 0 0 0 0 0 0 0 0 0 0 0 0 0 0 0 0 0 0 0 0 0 0 0 0 0 0 0 0 0 0 0 0 0 0 0 0 0 0 0 0 0 0
Wind_Speed_500mb
61 61 57 55 52 49 46 42 41 41 37 34 32 30 28 25 23 20 20 21 23 24 25 26 24 22 18 11 6 11 15 15 11 12 11 16 15 13 13 19 25 26 33
62 64 64 53 54 53 51 48 46 46 44 41 39 36 33 29 26 22 21 21 22 24 25 25 25 19 14 17 19 16 14 18 13 16 16 17 19 20 17 20 22 20 21
63 65 68 57 54 55 55 54 54 53 51 48 46 43 39 34 30 27 24 23 23 24 26 26 25 24 19 21 30 28 20 20 12 15 10 14 19 18 19 23 17 20 22
56 62 66 62 57 60 61 59 57 57 56 55 52 48 44 41 37 33 30 26 25 24 25 27 27 30 27 26 22 23 22 23 16 16 12 17 20 24 25 22 20 20 21
50 58 61 61 61 63 63 61 60 59 60 60 57 54 52 48 43 40 37 30 29 26 27 29 30 29 30 29 27 26 24 28 30 20 22 22 24 21 21 19 17 18 17
49 55 58 59 62 63 66 67 64 63 63 59 57 57 57 55 52 49 43 39 33 31 31 33 34 36 37 34 34 33 31 27 30 27 26 25 26 25 24 23 22 21 20
43 47 52 56 59 64 66 67 68 69 66 62 62 60 61 59 58 56 52 45 42 39 36 36 36 37 39 41 39 39 32 36 38 23 25 28 27 27 27 28 27 26 25
40 43 44 49 55 61 66 67 68 72 71 72 72 67 51 64 66 64 59 55 50 47 42 40 40 40 41 41 40 40 37 42 32 24 22 23 23 24 25 25 25 25 24
35 40 43 45 50 57 63 66 70 73 77 80 82 65 29 39 47 65 70 64 58 54 49 48 45 44 43 42 42 45 48 48 37 31 26 24 24 24 25 25 25 26 26
31 35 39 40 43 51 58 60 63 70 77 83 85 88 82 47 30 30 51 64 66 63 57 53 50 49 47 45 43 45 48 47 39 36 31 28 28 27 27 27 27 26 27
18 20 27 39 41 45 51 55 61 65 73 81 90 93 90 88 62 57 49 51 59 58 60 58 54 53 51 48 46 48 49 49 44 39 34 32 30 28 28 27 26 25 25
17 19 21 23 24 38 47 52 57 62 66 75 82 92 97 91 89 76 73 72 66 65 63 62 61 59 57 56 53 50 49 49 47 43 40 37 34 32 30 28 27 25 25
18 20 26 27 27 30 34 47 54 60 63 71 75 85 90 97 94 83 83 80 72 67 65 68 66 64 64 63 60 56 52 51 50 48 44 40 37 33 30 28 27 26 27
33 32 30 27 26 33 36 39 45 52 62 67 74 79 84 87 89 97 95 84 77 69 71 72 72 68 69 67 65 62 57 56 54 53 49 45 41 37 34 31 30 30 31
36 37 38 36 34 32 33 36 42 46 53 61 69 73 79 84 87 90 92 98 93 82 85 81 80 77 72 71 69 67 64 61 57 56 54 50 47 44 40 38 36 36 35
41 44 46 46 43 41 40 39 39 41 49 54 62 67 72 76 80 87 94 94 96 100 96 83 82 80 75 74 70 69 66 65 61 61 60 58 55 52 47 43 42 40 39
48 52 54 54 54 52 50 48 46 47 45 45 51 61 67 69 76 80 85 91 98 99 108 97 98 84 80 80 72 71 71 70 69 68 67 65 63 59 54 50 47 44 43
50 53 58 60 61 62 61 58 57 54 55 54 51 51 61 67 73 75 80 86 92 98 100 107 100 100 98 90 83 78 75 75 76 76 74 73 72 67 62 58 53 49 48
61 60 61 66 69 70 73 72 70 68 65 63 61 61 60 59 68 72 79 82 84 88 99 106 106 97 98 95 95 88 86 83 80 80 82 83 78 75 70 66 58 54 51
73 77 80 82 82 83 83 85 87 88 86 83 76 71 69 65 67 69 73 78 78 81 89 100 107 108 105 105 99 101 102 92 88 88 91 89 87 84 81 73 65 61 57
81 86 90 94 96 97 98 97 97 97 99 102 102 96 86 76 73 71 71 74 74 80 85 97 104 106 108 114 116 114 104 95 98 94 96 99 97 96 91 85 75 69 62
98 101 103 105 108 108 105 104 104 101 101 104 110 111 110 102 90 81 77 75 70 83 87 95 96 95 111 118 120 118 108 105 104 104 102 103 103 105 96 91 82 74 68
106 108 111 112 115 117 116 113 103 93 104 111 113 112 112 114 110 102 89 82 79 78 88 97 98 108 90 104 116 120 121 118 118 107 101 107 111 112 103 98 90 81 74
107 111 114 115 117 123 118 94 83 82 96 113 114 113 104 109 113 106 103 95 92 90 87 89 110 113 100 90 97 107 118 124 114 115 104 106 113 114 107 105 96 87 80
106 111 113 115 115 124 111 91 80 86 100 114 118 122 118 120 112 88 90 99 101 102 94 86 87 101 114 91 95 87 99 105 117 122 114 109 110 107 111 109 100 94 87
107 107 109 102 99 101 90 77 67 72 86 94 104 108 106 100 97 88 90 98 99 111 100 94 89 89 93 115 99 108 105 109 110 94 124 116 100 101 90 108 106 100 94
Wind_Direction_500mb
233 245 247 245 249 247 241 237 231 232 230 231 232 234 239 243 250 255 261 263 264 264 263 264 268 269 265 246 215 197 199 219 240 241 234 231 209 205 196 199 216 221 221
238 241 251 249 247 245 242 239 235 234 231 232 233 235 238 243 250 257 263 266 266 264 263 262 259 248 219 182 179 212 219 246 245 244 235 227 223 224 203 210 218 222 224
244 241 248 255 251 245 242 237 235 231 231 232 234 235 237 242 248 256 262 268 270 270 269 266 258 245 205 209 215 231 226 241 246 232 251 225 221 211 208 223 226 221 221
255 242 243 261 256 251 246 242 239 235 233 234 236 239 241 243 246 251 256 262 266 267 263 259 253 240 220 212 223 198 219 229 221 248 253 242 240 234 235 234 230 220 219
249 244 250 260 263 257 250 248 245 241 238 235 233 235 238 242 244 249 254 256 258 260 259 255 251 239 235 238 224 205 210 226 245 250 246 241 247 245 243 245 243 240 235
255 253 254 257 263 259 256 253 252 248 243 239 238 237 239 240 242 246 249 252 256 258 257 254 248 241 236 235 228 228 231 236 241 257 257 249 246 242 240 243 246 248 249
257 258 260 260 261 259 257 258 256 251 246 237 236 237 238 240 241 244 245 248 251 256 253 252 249 243 240 240 238 236 226 236 267 275 268 260 252 246 242 240 241 241 240
263 264 262 260 264 265 260 255 253 252 247 240 236 237 241 245 245 244 245 245 246 250 252 250 248 245 243 242 240 233 219 245 270 271 266 258 252 250 251 250 251 252 252
273 274 267 264 262 263 266 264 260 254 249 243 240 234 232 239 249 245 246 245 244 247 248 247 248 244 243 242 244 247 251 259 266 265 260 252 251 253 256 258 257 255 252
258 272 267 265 264 265 265 266 265 262 257 248 245 240 236 253 238 242 245 245 245 244 245 246 244 239 243 245 246 249 252 260 262 263 253 248 248 250 254 256 258 259 260
271 264 264 256 259 258 265 267 266 261 259 257 253 251 247 242 247 250 255 249 243 245 244 242 243 239 245 247 247 248 250 255 256 255 249 247 247 248 250 253 256 260 262
305 293 277 262 264 259 260 262 265 267 265 263 261 258 255 251 245 246 252 256 256 255 251 246 241 241 245 249 248 246 246 248 250 247 245 246 245 245 246 248 251 254 255
352 318 301 294 293 283 265 260 261 261 262 263 263 262 263 259 255 258 258 257 261 256 250 246 244 244 246 248 249 245 242 244 244 242 242 242 242 243 247 252 256 260 261
12 7 0 344 319 301 289 275 264 261 258 259 261 262 263 263 261 258 257 263 260 255 249 248 253 248 249 251 251 249 244 240 239 238 237 236 237 238 241 247 252 257 259
4 358 356 358 356 347 323 296 279 271 264 259 259 260 262 263 263 262 261 260 259 259 257 253 251 258 255 250 251 249 245 241 238 236 234 232 232 234 238 242 247 250 252
351 350 349 348 346 344 338 332 320 298 280 269 263 261 261 263 263 260 261 259 258 257 261 262 260 261 261 255 249 250 246 242 240 235 234 231 230 231 234 240 245 248 248
335 335 332 333 334 333 331 327 323 320 313 299 278 266 265 263 263 263 259 259 259 257 257 259 259 259 253 250 247 247 245 241 240 236 233 232 231 232 234 238 241 242 244
326 323 322 320 318 319 319 318 317 315 313 310 304 295 282 271 264 262 261 259 257 258 255 257 257 257 254 251 249 246 246 243 240 236 232 231 231 232 235 237 238 240 242
323 321 318 315 315 313 310 308 308 307 305 303 303 301 299 291 282 270 264 259 258 260 259 255 255 252 253 251 244 241 241 241 239 236 232 230 231 232 234 237 240 241 241
317 316 314 312 309 307 305 304 303 302 300 297 295 293 292 292 292 286 275 266 262 259 261 260 255 251 249 248 242 240 237 236 237 233 233 231 231 232 232 235 238 240 242
310 307 306 304 302 301 300 300 298 296 295 295 293 291 287 285 284 285 284 278 268 263 259 259 257 252 244 240 237 236 236 237 237 235 233 231 230 230 230 232 234 237 239
309 307 305 303 300 298 296 295 294 293 290 288 287 287 288 286 281 279 279 279 277 258 256 255 251 247 248 242 241 237 233 230 231 234 234 233 233 232 231 233 235 237 238
307 305 303 302 300 298 297 296 294 291 288 286 284 283 281 280 281 279 275 274 273 265 258 246 250 250 245 244 244 240 237 236 240 243 238 237 234 233 233 233 234 233 235
305 303 301 299 298 295 295 295 293 288 283 280 278 277 274 274 273 275 276 273 269 268 262 257 245 247 248 247 248 250 249 244 239 239 236 234 239 235 231 232 231 232 233
304 302 301 300 298 296 298 296 294 284 278 277 277 275 273 271 267 266 266 267 269 267 267 263 260 257 245 240 245 243 239 235 236 235 233 233 233 233 229 230 228 228 230
307 306 304 303 302 301 304 301 297 292 287 285 284 281 276 271 271 266 260 258 259 265 265 265 261 258 252 242 237 240 239 237 238 238 235 230 227 225 223 225 223 223 223
Wind_Speed_850mb
61 61 57 55 52 49 46 42 41 41 37 34 32 30 28 25 23 20 20 21 23 24 25 26 24 22 18 11 6 11 15 15 11 12 11 16 15 13 13 19 25 26 33
62 64 64 53 54 53 51 48 46 46 44 41 39 36 33 29 26 22 21 21 22 24 25 25 25 19 14 17 19 16 14 18 13 16 16 17 19 20 17 20 22 20 21
63 65 68 57 54 55 55 54 54 53 51 48 46 43 39 34 30 27 24 23 23 24 26 26 25 24 19 21 30 28 20 20 12 15 10 14 19 18 19 23 17 20 22
56 62 66 62 57 60 61 59 57 57 56 55 52 48 44 41 37 33 30 26 25 24 25 27 27 30 27 26 22 23 22 23 16 16 12 17 20 24 25 22 20 20 21
50 58 61 61 61 63 63 61 60 59 60 60 57 54 52 48 43 40 37 30 29 26 27 29 30 29 30 29 27 26 24 28 30 20 22 22 24 21 21 19 17 18 17
49 55 58 59 62 63 66 67 64 63 63 59 57 57 57 55 52 49 43 39 33 31 31 33 34 36 37 34 34 33 31 27 30 27 26 25 26 25 24 23 22 21 20
43 47 52 56 59 64 66 67 68 69 66 62 62 60 61 59 58 56 52 45 42 39 36 36 36 37 39 41 39 39 32 36 38 23 25 28 27 27 27 28 27 26 25
40 43 44 49 55 61 66 67 68 72 71 72 72 67 51 64 66 64 59 55 50 47 42 40 40 40 41 41 40 40 37 42 32 24 22 23 23 24 25 25 25 25 24
35 40 43 45 50 57 63 66 70 73 77 80 82 65 29 39 47 65 70 64 58 54 49 48 45 44 43 42 42 45 48 48 37 31 26 24 24 24 25 25 25 26 26
31 35 39 40 43 51 58 60 63 70 77 83 85 88 82 47 30 30 51 64 66 63 57 53 50 49 47 45 43 45 48 47 39 36 31 28 28 27 27 27 27 26 27
18 20 27 39 41 45 51 55 61 65 73 81 90 93 90 88 62 57 49 51 59 58 60 58 54 53 51 48 46 48 49 49 44 39 34 32 30 28 28 27 26 25 25
17 19 21 23 24 38 47 52 57 62 66 75 82 92 97 91 89 76 73 72 66 65 63 62 61 59 57 56 53 50 49 49 47 43 40 37 34 32 30 28 27 25 25
18 20 26 27 27 30 34 47 54 60 63 71 75 85 90 97 94 83 83 80 72 67 65 68 66 64 64 63 60 56 52 51 50 48 44 40 37 33 30 28 27 26 27
33 32 30 27 26 33 36 39 45 52 62 67 74 79 84 87 89 97 95 84 77 69 71 72 72 68 69 67 65 62 57 56 54 53 49 45 41 37 34 31 30 30 31
36 37 38 36 34 32 33 36 42 46 53 61 69 73 79 84 87 90 92 98 93 82 85 81 80 77 72 71 69 67 64 61 57 56 54 50 47 44 40 38 36 36 35
41 44 46 46 43 41 40 39 39 41 49 54 62 67 72 76 80 87 94 94 96 100 96 83 82 80 75 74 70 69 66 65 61 61 60 58 55 52 47 43 42 40 39
48 52 54 54 54 52 50 48 46 47 45 45 51 61 67 69 76 80 85 91 98 99 108 97 98 84 80 80 72 71 71 70 69 68 67 65 63 59 54 50 47 44 43
50 53 58 60 61 62 61 58 57 54 55 54 51 51 61 67 73 75 80 86 92 98 100 107 100 100 98 90 83 78 75 75 76 76 74 73 72 67 62 58 53 49 48
61 60 61 66 69 70 73 72 70 68 65 63 61 61 60 59 68 72 79 82 84 88 99 106 106 97 98 95 95 88 86 83 80 80 82 83 78 75 70 66 58 54 51
73 77 80 82 82 83 83 85 87 88 86 83 76 71 69 65 67 69 73 78 78 81 89 100 107 108 105 105 99 101 102 92 88 88 91 89 87 84 81 73 65 61 57
81 86 90 94 96 97 98 97 97 97 99 102 102 96 86 76 73 71 71 74 74 80 85 97 104 106 108 114 116 114 104 95 98 94 96 99 97 96 91 85 75 69 62
98 101 103 105 108 108 105 104 104 101 101 104 110 111 110 102 90 81 77 75 70 83 87 95 96 95 111 118 120 118 108 105 104 104 102 103 103 105 96 91 82 74 68
106 108 111 112 115 117 116 113 103 93 104 111 113 112 112 114 110 102 89 82 79 78 88 97 98 108 90 104 116 120 121 118 118 107 101 107 111 112 103 98 90 81 74
107 111 114 115 117 123 118 94 83 82 96 113 114 113 104 109 113 106 103 95 92 90 87 89 110 113 100 90 97 107 118 124 114 115 104 106 113 114 107 105 96 87 80
106 111 113 115 115 124 111 91 80 86 100 114 118 122 118 120 112 88 90 99 101 102 94 86 87 101 114 91 95 87 99 105 117 122 114 109 110 107 111 109 100 94 87
107 107 109 102 99 101 90 77 67 72 86 94 104 108 106 100 97 88 90 98 99 111 100 94 89 89 93 115 99 108 105 109 110 94 124 116 100 101 90 108 106 100 94
Wind_Direction_850mb
233 245 247 245 249 247 241 237 231 232 230 231 232 234 239 243 250 255 261 263 264 264 263 264 268 269 265 246 215 197 199 219 240 241 234 231 209 205 196 199 216 221 221
238 241 251 249 247 245 242 239 235 234 231 232 233 235 238 243 250 257 263 266 266 264 263 262 259 248 219 182 179 212 219 246 245 244 235 227 223 224 203 210 218 222 224
244 241 248 255 251 245 242 237 235 231 231 232 234 235 237 242 248 256 262 268 270 270 269 266 258 245 205 209 215 231 226 241 246 232 251 225 221 211 208 223 226 221 221
255 242 243 261 256 251 246 242 239 235 233 234 236 239 241 243 246 251 256 262 266 267 263 259 253 240 220 212 223 198 219 229 221 248 253 242 240 234 235 234 230 220 219
249 244 250 260 263 257 250 248 245 241 238 235 233 235 238 242 244 249 254 256 258 260 259 255 251 239 235 238 224 205 210 226 245 250 246 241 247 245 243 245 243 240 235
255 253 254 257 263 259 256 253 252 248 243 239 238 237 239 240 242 246 249 252 256 258 257 254 248 241 236 235 228 228 231 236 241 257 257 249 246 242 240 243 246 248 249
257 258 260 260 261 259 257 258 256 251 246 237 236 237 238 240 241 244 245 248 251 256 253 252 249 243 240 240 238 236 226 236 267 275 268 260 252 246 242 240 241 241 240
263 264 262 260 264 265 260 255 253 252 247 240 236 237 241 245 245 244 245 245 246 250 252 250 248 245 243 242 240 233 219 245 270 271 266 258 252 250 251 250 251 252 252
273 274 267 264 262 263 266 264 260 254 249 243 240 234 232 239 249 245 246 245 244 247 248 247 248 244 243 242 244 247 251 259 266 265 260 252 251 253 256 258 257 255 252
258 272 267 265 264 265 265 266 265 262 257 248 245 240 236 253 238 242 245 245 245 244 245 246 244 239 243 245 246 249 252 260 262 263 253 248 248 250 254 256 258 259 260
271 264 264 256 259 258 265 267 266 261 259 257 253 251 247 242 247 250 255 249 243 245 244 242 243 239 245 247 247 248 250 255 256 255 249 247 247 248 250 253 256 260 262
305 293 277 262 264 259 260 262 265 267 265 263 261 258 255 251 245 246 252 256 256 255 251 246 241 241 245 249 248 246 246 248 250 247 245 246 245 245 246 248 251 254 255
352 318 301 294 293 283 265 260 261 261 262 263 263 262 263 259 255 258 258 257 261 256 250 246 244 244 246 248 249 245 242 244 244 242 242 242 242 243 247 252 256 260 261
12 7 0 344 319 301 289 275 264 261 258 259 261 262 263 263 261 258 257 263 260 255 249 248 253 248 249 251 251 249 244 240 239 238 237 236 237 238 241 247 252 257 259
4 358 356 358 356 347 323 296 279 271 264 259 259 260 262 263 263 262 261 260 259 259 257 253 251 258 255 250 251 249 245 241 238 236 234 232 232 234 238 242 247 250 252
351 350 349 348 346 344 338 332 320 298 280 269 263 261 261 263 263 260 261 259 258 257 261 262 260 261 261 255 249 250 246 242 240 235 234 231 230 231 234 240 245 248 248
335 335 332 333 334 333 331 327 323 320 313 299 278 266 265 263 263 263 259 259 259 257 257 259 259 259 253 250 247 247 245 241 240 236 233 232 231 232 234 238 241 242 244
326 323 322 320 318 319 319 318 317 315 313 310 304 295 282 271 264 262 261 259 257 258 255 257 257 257 254 251 249 246 246 243 240 236 232 231 231 232 235 237 238 240 242
323 321 318 315 315 313 310 308 308 307 305 303 303 301 299 291 282 270 264 259 258 260 259 255 255 252 253 251 244 241 241 241 239 236 232 230 231 232 234 237 240 241 241
317 316 314 312 309 307 305 304 303 302 300 297 295 293 292 292 292 286 275 266 262 259 261 260 255 251 249 248 242 240 237 236 237 233 233 231 231 232 232 235 238 240 242
310 307 306 304 302 301 300 300 298 296 295 295 293 291 287 285 284 285 284 278 268 263 259 259 257 252 244 240 237 236 236 237 237 235 233 231 230 230 230 232 234 237 239
309 307 305 303 300 298 296 295 294 293 290 288 287 287 288 286 281 279 279 279 277 258 256 255 251 247 248 242 241 237 233 230 231 234 234 233 233 232 231 233 235 237 238
307 305 303 302 300 298 297 296 294 291 288 286 284 283 281 280 281 279 275 274 273 265 258 246 250 250 245 244 244 240 237 236 240 243 238 237 234 233 233 233 234 233 235
305 303 301 299 298 295 295 295 293 288 283 280 278 277 274 274 273 275 276 273 269 268 262 257 245 247 248 247 248 250 249 244 239 239 236 234 239 235 231 232 231 232 233
304 302 301 300 298 296 298 296 294 284 278 277 277 275 273 271 267 266 266 267 269 267 267 263 260 257 245 240 245 243 239 235 236 235 233 233 233 233 229 230 228 228 230
307 306 304 303 302 301 304 301 297 292 287 285 284 281 276 271 271 266 260 258 259 265 265 265 261 258 252 242 237 240 239 237 238 238 235 230 227 225 223 225 223 223 223